This demonstration page uses our WeatherBlox Daily Observations layout. Learn more.

Left ArrowRight Arrow

36.17497, -115.13722

Hourly Observations for June 25, 2019

Temp ( °F °C ) Dew Point ( °F °C ) Humidity (%) Winds ( mph kmh ) Pressure ( in mb ) Visibility ( mi km ) Precip ( " mm )
12:53 am 00:53 Clear 86 30 26 -3.3 11 11 SSW 9 15 29.69 1006 10 16 0.00 0.00
1:53 am 01:53 Clear 85 29.4 33 0.6 15 15 SW 10 17 29.69 1006 10 16 0.00 0.00
2:53 am 02:53 Clear 81 27.2 35 1.7 19 19 Calm 29.70 1006 10 16 0.00 0.00
3:53 am 03:53 Clear 79 26.1 29 -1.7 16 16 NNW 3 6 29.71 1006 10 16 0.00 0.00
4:53 am 04:53 Clear 76 24.4 31 -0.6 19 19 NNE 3 6 29.72 1006 10 16 0.00 0.00
5:53 am 05:53 Sunny 75 23.9 32 0 21 21 N 3 6 29.74 1007 10 16 0.00 0.00
6:53 am 06:53 Sunny 80 26.7 37 2.8 21 21 ESE 7 11 29.75 1007 10 16 0.00 0.00
7:53 am 07:53 Sunny 83 28.3 38 3.3 20 20 SSE 8 13 29.77 1008 10 16 0.00 0.00
8:53 am 08:53 Sunny 86 30 37 2.8 18 18 SSE 10 17 29.78 1008 10 16 0.00 0.00
9:53 am 09:53 Sunny 91 32.8 33 0.6 13 13 SSE 12 19 29.77 1008 10 16 0.00 0.00
10:53 am 10:53 Sunny 94 34.4 30 -1.1 10 10 SSE 15 24 29.77 1008 10 16 0.00 0.00
11:53 am 11:53 Sunny 96 35.6 28 -2.2 9 9 SW 14 22 29.75 1008 10 16 0.00 0.00
12:53 pm 12:53 Sunny 96 35.6 27 -2.8 8 8 SW 20 31 29.74 1007 10 16 0.00 0.00
1:53 pm 13:53 Sunny 97 36.1 25 -3.9 7 7 SSW 14 22 29.72 1006 10 16 0.00 0.00
2:53 pm 14:53 Sunny 98 36.7 24 -4.4 7 7 SW 18 30 29.70 1006 10 16 0.00 0.00
3:53 pm 15:53 Sunny 98 36.7 22 -5.6 6 6 S 17 28 29.69 1006 10 16 0.00 0.00
4:53 pm 16:53 Sunny 98 36.7 20 -6.7 6 6 SSW 17 28 29.69 1006 10 16 0.00 0.00
5:53 pm 17:53 Sunny 97 36.1 20 -6.7 6 6 S 18 30 29.68 1005 10 16 0.00 0.00
6:53 pm 18:53 Sunny 95 35 21 -6.1 7 7 S 15 24 29.67 1005 10 16 0.00 0.00
7:53 pm 19:53 Sunny 93 33.9 14 -10 5 5 S 18 30 29.68 1005 10 16 0.00 0.00
8:53 pm 20:53 Clear 90 32.2 17 -8.3 7 7 S 14 22 29.71 1006 10 16 0.00 0.00
9:53 pm 21:53 Clear 88 31.1 14 -10 6 6 S 12 19 29.74 1007 10 16 0.00 0.00
10:53 pm 22:53 Clear 86 30 17 -8.3 8 8 S 7 11 29.75 1008 10 16 0.00 0.00
11:53 pm 23:53 Clear 83 28.3 18 -7.8 9 9 ENE 5 7 29.75 1007 10 16 0.00 0.00

Powered by AerisWeather